| time (UTC) | temp F | wind direction | speed MPH | gust MPH | rain 1hr in | rain 24hr in | rain mn in | humidity % | barometer mb |
| 20260508074511 | 53 | 155 | 0.0 | 3.0 | 0.00 | 0.02 | 0.00 | 82 | 1010.2 |
| 20260508073008 | 52 | 188 | 0.0 | 1.0 | 0.00 | 0.02 | 0.00 | 83 | 1010.0 |
| 20260508071547 | 52 | 38 | 0.0 | 1.0 | 0.00 | 0.02 | 0.00 | 83 | 1009.8 |
| 20260508070016 | 53 | 224 | 0.0 | 0.0 | 0.00 | 0.02 | 0.00 | 82 | 1009.7 |
| 20260508064557 | 52 | 58 | 0.0 | 4.0 | 0.00 | 0.02 | 0.00 | 84 | 1009.7 |
| 20260508063048 | 52 | 154 | 0.0 | 2.0 | 0.00 | 0.02 | 0.00 | 84 | 1009.7 |
| 20260508061503 | 51 | 231 | 0.0 | 1.0 | 0.00 | 0.02 | 0.00 | 84 | 1009.6 |
| 20260508060042 | 51 | 86 | 0.0 | 3.0 | 0.00 | 0.02 | 0.00 | 85 | 1009.6 |
| 20260508054514 | 51 | 102 | 0.0 | 2.0 | 0.00 | 0.02 | 0.00 | 86 | 1009.8 |
| 20260508053101 | 50 | 101 | 0.0 | 2.0 | 0.00 | 0.02 | 0.00 | 86 | 1009.8 |
| 20260508051530 | 50 | 123 | 0.0 | 1.0 | 0.00 | 0.02 | 0.00 | 86 | 1009.8 |
| 20260508050003 | 50 | 122 | 0.0 | 0.0 | 0.00 | 0.02 | 0.00 | 86 | 1009.9 |
| 20260508044548 | 50 | 123 | 0.0 | 0.0 | 0.00 | 0.02 | 0.00 | 87 | 1009.9 |
| 20260508043017 | 50 | 124 | 0.0 | 0.0 | 0.00 | 0.02 | 0.00 | 87 | 1009.8 |
| 20260508041558 | 50 | 124 | 0.0 | 1.0 | 0.00 | 0.02 | 0.00 | 87 | 1009.8 |
| 20260508040025 | 51 | 122 | 0.0 | 1.0 | 0.00 | 0.02 | 0.00 | 87 | 1009.7 |
| 20260508034612 | 51 | 115 | 0.0 | 3.0 | 0.00 | 0.02 | 0.02 | 87 | 1009.6 |
| 20260508033048 | 51 | 129 | 0.0 | 1.0 | 0.00 | 0.02 | 0.02 | 86 | 1009.6 |
| 20260508031508 | 51 | 40 | 0.0 | 1.0 | 0.00 | 0.02 | 0.02 | 86 | 1009.8 |
| 20260508030053 | 51 | 96 | 0.0 | 0.0 | 0.00 | 0.02 | 0.02 | 85 | 1009.7 |
| 20260508024524 | 51 | 116 | 0.0 | 2.0 | 0.00 | 0.02 | 0.02 | 85 | 1009.8 |
| 20260508023103 | 51 | 117 | 0.0 | 2.0 | 0.00 | 0.02 | 0.02 | 84 | 1009.7 |
| 20260508021538 | 52 | 155 | 0.0 | 2.0 | 0.00 | 0.02 | 0.02 | 85 | 1009.9 |
| 20260508020001 | 52 | 141 | 0.0 | 1.0 | 0.00 | 0.02 | 0.02 | 86 | 1009.7 |
| 20260508014545 | 52 | 190 | 0.0 | 1.0 | 0.00 | 0.02 | 0.02 | 85 | 1009.6 |
| 20260508013013 | 52 | 99 | 0.0 | 1.0 | 0.00 | 0.02 | 0.02 | 82 | 1009.6 |
| 20260508011556 | 53 | 154 | 0.0 | 2.0 | 0.00 | 0.02 | 0.02 | 81 | 1009.3 |
| 20260508010046 | 53 | 109 | 0.0 | 3.0 | 0.00 | 0.02 | 0.02 | 80 | 1009.0 |
| 20260508004612 | 53 | 163 | 0.0 | 1.0 | 0.00 | 0.02 | 0.02 | 80 | 1009.0 |
| 20260508003044 | 53 | 92 | 1.0 | 5.0 | 0.00 | 0.02 | 0.02 | 81 | 1008.9 |
| 20260508001515 | 54 | 154 | 0.0 | 3.0 | 0.00 | 0.02 | 0.02 | 80 | 1008.6 |
| 20260508000056 | 54 | 125 | 0.0 | 3.0 | 0.00 | 0.02 | 0.02 | 78 | 1008.5 |
| 20260507234524 | 54 | 111 | 0.0 | 3.0 | 0.00 | 0.02 | 0.02 | 77 | 1008.7 |
| 20260507233105 | 54 | 158 | 0.0 | 6.0 | 0.00 | 0.02 | 0.02 | 77 | 1008.5 |
| 20260507231541 | 55 | 87 | 1.0 | 9.0 | 0.00 | 0.02 | 0.02 | 75 | 1008.4 |
| 20260507230026 | 56 | 130 | 1.0 | 5.0 | 0.00 | 0.02 | 0.02 | 74 | 1008.4 |
| 20260507224554 | 56 | 120 | 0.0 | 3.0 | 0.00 | 0.02 | 0.02 | 70 | 1007.9 |
| 20260507223040 | 57 | 158 | 0.0 | 4.0 | 0.00 | 0.02 | 0.02 | 71 | 1008.2 |
| 20260507221603 | 57 | 246 | 1.0 | 5.0 | 0.00 | 0.02 | 0.02 | 71 | 1008.1 |
| 20260507220033 | 57 | 140 | 1.0 | 6.0 | 0.00 | 0.02 | 0.02 | 72 | 1008.4 |
| 20260507214510 | 56 | 124 | 1.0 | 6.0 | 0.00 | 0.02 | 0.02 | 74 | 1008.6 |
| 20260507213111 | 56 | 83 | 0.0 | 5.0 | 0.00 | 0.02 | 0.02 | 78 | 1008.5 |
| 20260507211523 | 56 | 113 | 1.0 | 6.0 | 0.00 | 0.02 | 0.02 | 80 | 1008.1 |
| 20260507210105 | 56 | 114 | 1.0 | 5.0 | 0.00 | 0.02 | 0.02 | 78 | 1008.2 |
| 20260507204533 | 56 | 214 | 1.0 | 6.0 | 0.00 | 0.02 | 0.02 | 77 | 1008.2 |
| 20260507203005 | 57 | 118 | 0.0 | 5.0 | 0.00 | 0.02 | 0.02 | 77 | 1008.1 |
| 20260507201559 | 56 | 160 | 1.0 | 4.0 | 0.01 | 0.02 | 0.02 | 75 | 1007.9 |
| 20260507200029 | 57 | 162 | 2.0 | 6.0 | 0.01 | 0.02 | 0.02 | 75 | 1008.4 |
| 20260507194602 | 57 | 143 | 0.0 | 4.0 | 0.01 | 0.02 | 0.02 | 79 | 1008.2 |
| 20260507193042 | 56 | 168 | 0.0 | 3.0 | 0.01 | 0.02 | 0.02 | 76 | 1008.4 |
| 20260507191503 | 56 | 134 | 1.0 | 5.0 | 0.00 | 0.01 | 0.01 | 74 | 1008.4 |
| 20260507190050 | 57 | 307 | 0.0 | 3.0 | 0.00 | 0.01 | 0.01 | 73 | 1009.0 |
| 20260507184515 | 57 | 214 | 0.0 | 3.0 | 0.00 | 0.01 | 0.01 | 74 | 1009.0 |
| 20260507183057 | 58 | 216 | 1.0 | 4.0 | 0.00 | 0.01 | 0.01 | 71 | 1008.9 |
| 20260507181532 | 58 | 82 | 1.0 | 5.0 | 0.00 | 0.01 | 0.01 | 68 | 1008.8 |
| 20260507180108 | 59 | 199 | 2.0 | 6.0 | 0.00 | 0.01 | 0.01 | 66 | 1009.3 |
| 20260507174551 | 60 | 203 | 1.0 | 5.0 | 0.00 | 0.01 | 0.01 | 67 | 1009.3 |
| 20260507173015 | 60 | 79 | 0.0 | 5.0 | 0.00 | 0.01 | 0.01 | 67 | 1009.7 |
| 20260507171601 | 60 | 155 | 0.0 | 4.0 | 0.00 | 0.01 | 0.01 | 65 | 1009.7 |
| 20260507170022 | 60 | 82 | 0.0 | 3.0 | 0.00 | 0.01 | 0.01 | 67 | 1009.7 |
| 20260507164606 | 59 | 281 | 0.0 | 2.0 | 0.00 | 0.01 | 0.01 | 68 | 1010.1 |
| 20260507163042 | 58 | 217 | 0.0 | 1.0 | 0.00 | 0.01 | 0.01 | 67 | 1010.4 |
| 20260507161513 | 57 | 24 | 0.0 | 3.0 | 0.00 | 0.01 | 0.01 | 66 | 1010.5 |
| 20260507160053 | 58 | 248 | 0.0 | 2.0 | 0.00 | 0.01 | 0.01 | 65 | 1010.5 |
| 20260507154520 | 58 | 108 | 1.0 | 4.0 | 0.00 | 0.01 | 0.01 | 64 | 1010.7 |
| 20260507153115 | 57 | 56 | 1.0 | 5.0 | 0.00 | 0.01 | 0.01 | 65 | 1011.0 |
| 20260507151531 | 58 | 244 | 0.0 | 3.0 | 0.00 | 0.01 | 0.01 | 64 | 1011.2 |
| 20260507150002 | 57 | 191 | 0.0 | 5.0 | 0.00 | 0.01 | 0.01 | 66 | 1011.0 |
| 20260507144544 | 57 | 68 | 2.0 | 7.0 | 0.00 | 0.01 | 0.01 | 66 | 1011.0 |
| 20260507143018 | 57 | 226 | 2.0 | 7.0 | 0.00 | 0.01 | 0.01 | 66 | 1011.0 |
| 20260507141557 | 57 | 75 | 2.0 | 11.0 | 0.00 | 0.01 | 0.01 | 68 | 1011.1 |
| 20260507140030 | 56 | 351 | 1.0 | 7.0 | 0.00 | 0.01 | 0.01 | 69 | 1011.2 |
| 20260507134621 | 56 | 237 | 2.0 | 5.0 | 0.00 | 0.01 | 0.01 | 72 | 1011.3 |
| 20260507133040 | 55 | 323 | 2.0 | 6.0 | 0.00 | 0.01 | 0.01 | 74 | 1011.2 |
| 20260507131524 | 54 | 150 | 0.0 | 3.0 | 0.00 | 0.01 | 0.01 | 76 | 1011.2 |
| 20260507130110 | 54 | 39 | 0.0 | 5.0 | 0.00 | 0.01 | 0.01 | 78 | 1011.4 |
| 20260507124525 | 54 | 314 | 0.0 | 3.0 | 0.00 | 0.01 | 0.01 | 79 | 1011.1 |
| 20260507123110 | 53 | 45 | 0.0 | 6.0 | 0.00 | 0.01 | 0.01 | 79 | 1011.1 |
| 20260507121531 | 53 | 56 | 1.0 | 5.0 | 0.00 | 0.01 | 0.01 | 80 | 1011.0 |
| 20260507120006 | 53 | 51 | 1.0 | 6.0 | 0.00 | 0.01 | 0.01 | 80 | 1011.0 |
| 20260507114545 | 53 | 38 | 0.0 | 4.0 | 0.00 | 0.01 | 0.01 | 80 | 1010.8 |
| 20260507113018 | 53 | 78 | 0.0 | 7.0 | 0.00 | 0.01 | 0.01 | 80 | 1010.7 |
| 20260507111556 | 53 | 77 | 0.0 | 5.0 | 0.00 | 0.01 | 0.01 | 81 | 1010.8 |
| 20260507110028 | 53 | 34 | 1.0 | 4.0 | 0.00 | 0.01 | 0.01 | 81 | 1010.9 |
| 20260507104502 | 53 | 3 | 1.0 | 7.0 | 0.00 | 0.01 | 0.01 | 82 | 1010.7 |
| 20260507103042 | 53 | 342 | 0.0 | 2.0 | 0.00 | 0.01 | 0.01 | 84 | 1010.3 |
| 20260507101513 | 53 | 58 | 1.0 | 9.0 | 0.00 | 0.01 | 0.01 | 81 | 1010.1 |
| 20260507094521 | 53 | 25 | 2.0 | 7.0 | 0.00 | 0.01 | 0.01 | 81 | 1009.7 |
| 20260507093103 | 53 | 44 | 3.0 | 8.0 | 0.00 | 0.01 | 0.01 | 82 | 1009.3 |
| 20260507091535 | 53 | 36 | 3.0 | 11.0 | 0.00 | 0.01 | 0.01 | 82 | 1009.5 |
| 20260507090007 | 54 | 253 | 2.0 | 9.0 | 0.00 | 0.01 | 0.01 | 85 | 1009.4 |
| 20260507084550 | 54 | 52 | 3.0 | 11.0 | 0.00 | 0.01 | 0.01 | 86 | 1009.1 |
| 20260507083019 | 55 | 309 | 3.0 | 10.0 | 0.00 | 0.01 | 0.01 | 86 | 1009.0 |
| 20260507081604 | 55 | 51 | 4.0 | 12.0 | 0.01 | 0.01 | 0.01 | 85 | 1008.8 |
| 20260507080030 | 56 | 357 | 4.0 | 14.0 | 0.01 | 0.01 | 0.01 | 86 | 1008.4 |